sat.trackr.live / text

‹ back to catalog

SAUDISAT 5B

NORAD 43833 · 2018-102C

PAYLOAD ACTIVE UNKNOWN

§ Identity

Operator
Country
SAUD
Launch date
2018-12-07
Launch site
JSC
Launch vehicle
Mass (kg)
RCS (m²)

Purposes: earth_obs

External: N2YO · Heavens-Above · Gunter

§ Orbital elements

Epoch: 2026-05-25T04:48:31.458240Z

Period
94.24 min
Inclination
97.3186°
Eccentricity
0.0009591
Mean motion
15.28043017 rev/d
Perigee alt
475.1 km
Apogee alt
488.2 km
Semi-major
6,859.8 km
B*
1.8229e-4
RAAN
210.2549°
Arg perigee
209.0941°
Mean anomaly
150.9766°
Rev number
41,228

§ Raw data

SAUDISAT 5B1 43833U 18102C   26145.20036410  .00004918  00000+0  18229-3 0  99932 43833  97.3186 210.2549 0009591 209.0941 150.9766 15.28043017412281

JSON: /api/v1/satellites/43833 · /tle

For live sub-satellite position, see the globe view (requires WebGL).

§ Visibility from observer

Set your observer location to see the next 7 days of passes ≥ 10°. The values pass through the URL so the page stays shareable.

No JS? Fill the form by hand. The geolocation button needs JavaScript.

§ Radio — SatNOGS DB

ModeDescriptionDownlinkUplink
FM 401.35 401.350 MHz
FM 401.85 401.850 MHz

2 transmitters · refreshed weekly from db.satnogs.org